#timestamp,LO_Frequency,Hit,StdDev 
1578736815.5,286047000.1,N
1578736835.3,286047001.0,N
1578736855.2,286047000.8,N
1578736875.0,286047001.2,N
1578736875.9,286047001.2,N
1578736895.7,286046996.9,N
1578736915.6,286046997.7,N
1578736935.4,286046996.7,N
1578736955.3,286046997.1,N
1578736975.1,286046997.0,N
1578736976.0,286046997.0,N
1578736995.8,286046997.1,N
1578737015.7,286046997.0,N
1578737035.5,286046998.2,N
1578737055.3,286047000.5,N
1578737075.2,286047000.7,N
1578737095.0,286046998.2,N
1578737095.9,286046998.2,N
1578737115.8,286047001.2,N
1578737135.6,286046998.6,N
1578737155.4,286047000.7,N
1578737175.3,286047000.6,N
1578737195.1,286047000.4,N
1578737215.8,286046998.9,N
1578737235.7,286047001.1,N
1578737255.5,286047000.3,N
1578737275.4,286047000.2,N
1578737295.2,286047002.7,N
1578737315.0,286047002.8,N
1578737315.9,286047002.8,N
1578737335.8,286047002.4,N
1578737355.6,286047004.3,N
1578737375.4,286047004.4,N
1578737395.3,286047003.2,N
1578737415.1,286047005.4,N
1578737435.9,286047005.6,N
1578737455.7,286047005.3,N
1578737475.5,286047005.9,N
1578737495.4,286047006.0,N
1578737515.2,286047003.4,N
1578737535.0,286047004.4,N
1578737535.9,286047004.4,N
1578737555.8,286047001.7,N
1578737575.6,286047001.4,N
1578737595.5,286047002.8,N
1578737615.3,286047002.4,N
1578737635.1,286046999.7,N
1578737655.9,286046999.9,N
1578737675.7,286047000.7,N
1578737695.6,286046998.9,N
1578737715.4,286046996.6,N
1578737735.2,286046997.6,N
1578737755.1,286046995.3,N
1578737756.0,286046995.3,N
1578737775.8,286046995.3,N
1578737795.6,286046996.4,N
1578737815.5,286046994.3,N
1578737835.3,286046994.2,N
1578737855.2,286046993.9,N
1578737875.9,286046996.2,N
1578737895.7,286046996.3,N
1578737915.6,286046996.3,N
1578737935.4,286046993.5,N
1578737955.2,286046995.8,N
1578737975.1,286046997.7,N
1578737976.0,286046997.7,N
1578737995.8,286046999.3,N
1578738015.7,286046996.1,N
1578738035.5,286046995.4,N
1578738055.3,286046995.2,N
1578738075.2,286046995.8,N
1578738095.9,286046998.0,N
1578738115.7,286046995.7,N
1578738135.6,286046997.7,N
1578738155.4,286046997.3,N
1578738175.2,286046997.6,N
1578738195.1,286046997.8,N
1578738196.0,286046997.8,N
1578738215.8,286046995.3,N
1578738235.7,286046997.5,N
1578738255.5,286046997.7,N
1578738275.3,286046996.1,N
1578738295.2,286046993.8,Y
1578738315.0,286046997.3,P
1578738315.9,286046997.3,P
1578738335.8,286046999.4,N
1578738355.6,286047000.0,N
1578738375.4,286046998.8,N
1578738395.3,286046999.2,N
1578738415.1,286046999.2,N
1578738435.8,286046999.6,N
1578738455.7,286046997.4,N
1578738475.5,286046997.8,N
1578738495.4,286046995.0,Y
1578738515.2,286046996.6,P
1578738535.0,286046997.0,P
1578738535.9,286046997.0,P
1578738555.8,286046996.6,Y
1578738575.6,286047000.6,P
1578738595.4,286047001.5,N
1578738615.3,286047002.1,N
1578738635.1,286047003.1,N
1578738655.9,286047002.9,N
1578738675.7,286047005.3,N
1578738695.5,286047007.6,Y
1578738715.4,286047003.4,P
1578738735.2,286047005.3,P
1578738755.0,286047002.9,N
1578738755.9,286047002.9,N
1578738775.8,286047003.4,N
1578738795.6,286047005.8,Y
1578738815.5,286047000.0,P
1578738835.3,286047000.5,N
1578738855.1,286047000.0,N
1578738875.9,286047002.5,N
1578738895.7,286047002.2,N
1578738915.6,286047004.4,Y
1578738935.4,286047002.7,P
1578738955.2,286047002.4,P
1578738975.1,286047000.1,N
1578738976.0,286047000.1,N
1578738995.8,286047002.5,N
1578739015.6,286047002.2,N
1578739035.5,286047000.4,N
1578739055.3,286047001.0,N
1578739075.2,286047000.2,N
1578739095.9,286047000.4,N
1578739115.7,286046998.6,N
1578739135.6,286047000.7,N
1578739155.4,286047001.0,N
1578739175.2,286046998.2,N
1578739195.1,286047000.9,N
1578739196.0,286047000.9,N
1578739215.8,286047000.8,N
1578739235.7,286046998.5,N
1578739255.5,286047001.0,N
1578739275.3,286047000.6,N
1578739295.2,286046998.3,N
1578739315.0,286046998.2,N
1578739315.9,286046998.2,N
1578739335.7,286047001.2,N
1578739355.6,286046998.8,N
1578739375.4,286046997.1,N
1578739395.3,286046997.8,N
1578739415.1,286046996.9,N
1578739416.0,286046996.9,N
1578739435.8,286047001.0,N
1578739455.7,286047000.7,N
1578739475.5,286046999.4,N
1578739495.4,286046998.4,N
1578739515.2,286047000.6,N
1578739535.0,286047000.1,N
1578739535.9,286047000.1,N
1578739555.8,286047001.2,N
1578739575.6,286046998.1,N
1578739595.4,286047001.1,N
1578739615.3,286047000.0,N
1578739635.1,286047001.3,N
1578739655.9,286047000.1,N
1578739675.7,286047001.5,N
1578739695.5,286047004.0,N
1578739715.4,286047003.8,N
1578739735.2,286047003.4,N
1578739755.1,286047004.0,N
1578739756.0,286047004.0,N
1578739775.8,286047006.0,N
1578739795.6,286047003.4,N
1578739815.5,286047003.0,N
1578739835.3,286047005.4,N
1578739855.1,286047003.4,N
1578739875.9,286047003.5,N
1578739895.7,286047003.5,N
1578739915.6,286047005.7,N
1578739935.4,286047005.5,N
1578739955.2,286047005.6,N
1578739975.1,286047003.2,N
1578739976.0,286047003.2,N
1578739995.8,286047003.8,N
1578740015.6,286047002.9,N
1578740035.5,286047004.6,N
1578740055.3,286047003.4,N
1578740075.2,286047005.6,N
1578740095.9,286047004.7,N
1578740115.7,286047005.4,N
1578740135.6,286047007.4,Y
1578740155.4,286047004.4,P
1578740175.2,286047003.8,P
1578740195.1,286047003.7,P
1578740196.0,286047003.7,Y
1578740215.8,286047000.7,P
1578740235.7,286046999.0,N
1578740255.5,286046999.3,N
1578740275.3,286046998.5,N
1578740295.2,286046997.7,N
1578740315.9,286046997.0,N
1578740335.7,286046997.1,N
1578740355.6,286046999.4,N
1578740375.4,286046999.3,N
1578740395.3,286046996.5,N
